This demonstration page uses our WeatherBlox Daily Observations layout. Learn more.

Left ArrowRight Arrow

41.12389, -100.76542

Hourly Observations for May 6, 2017

Temp ( °F °C ) Dew Point ( °F °C ) Humidity (%) Winds ( mph kmh ) Pressure ( in mb ) Visibility ( mi km ) Precip ( " mm )
12:53 am 00:53 Clear 47 8.3 41 5 80 80 E 3 6 29.91 1013 10 16 0.00 0.00
1:53 am 01:53 Clear 47 8.3 41 5 80 80 Calm 29.92 1013 10 16 0.00 0.00
2:53 am 02:53 Clear 45 7.2 40 4.4 83 83 Calm 29.91 1013 10 16 0.00 0.00
3:53 am 03:53 Clear 42 5.6 39 3.9 89 89 Calm 29.90 1013 10 16 0.00 0.00
4:53 am 04:53 Clear 41 5 38 3.3 89 89 Calm 29.91 1013 10 16 0.00 0.00
5:53 am 05:53 Clear 41 5 38 3.3 89 89 Calm 29.91 1013 10 16 0.00 0.00
6:53 am 06:53 Sunny 41 5 38 3.3 89 89 E 3 6 29.91 1013 10 16 0.00 0.00
7:53 am 07:53 Sunny 48 8.9 42 5.6 80 80 ESE 3 6 29.91 1013 10 16 0.00 0.00
8:53 am 08:53 Sunny 57 13.9 47 8.3 69 69 ESE 3 6 29.92 1013 10 16 0.00 0.00
9:53 am 09:53 Sunny 66 18.9 48 8.9 52 52 ESE 3 6 29.91 1013 10 16 0.00 0.00
10:53 am 10:53 Sunny 72 22.2 51 10.6 48 48 ESE 7 11 29.89 1012 10 16 0.00 0.00
11:53 am 11:53 Sunny 78 25.6 52 11.1 40 40 VRB 3 6 29.87 1012 10 16 0.00 0.00
12:53 pm 12:53 Sunny 82 27.8 52 11.1 35 35 SE 9 15 29.86 1011 10 16 0.00 0.00
1:53 pm 13:53 Sunny 83 28.3 47 8.3 28 28 S 14 22 29.84 1010 10 16 0.00 0.00
2:53 pm 14:53 Sunny 85 29.4 47 8.3 27 27 SSE 7 11 29.82 1010 10 16 0.00 0.00
3:53 pm 15:53 Sunny 85 29.4 46 7.8 26 26 SSE 15 24 29.80 1009 10 16 0.00 0.00
4:53 pm 16:53 Sunny 84 28.9 47 8.3 27 27 SSE 12 19 29.78 1009 10 16 0.00 0.00
5:53 pm 17:53 Sunny 84 28.9 48 8.9 29 29 SE 10 17 29.77 1008 10 16 0.00 0.00
6:53 pm 18:53 Sunny 82 27.8 47 8.3 29 29 SSE 14 22 29.76 1008 10 16 0.00 0.00
7:53 pm 19:53 Sunny 78 25.6 48 8.9 35 35 SSE 9 15 29.76 1008 10 16 0.00 0.00
8:53 pm 20:53 Clear 70 21.1 48 8.9 46 46 SE 8 13 29.77 1008 10 16 0.00 0.00
9:53 pm 21:53 Clear 67 19.4 47 8.3 49 49 SE 8 13 29.78 1009 10 16 0.00 0.00
10:53 pm 22:53 Clear 69 20.6 46 7.8 44 44 SSE 9 15 29.78 1008 10 16 0.00 0.00
11:53 pm 23:53 Clear 67 19.4 46 7.8 47 47 SSE 10 17 29.77 1008 10 16 0.00 0.00

Powered by AerisWeather